User: anonymous   Login
Location: Miami, Florida
(25.6830°N, 80.1700°W)
Time: 07:12:14
(UTC-04:00)
Language:

Tiangong 2 - Orbit

View from above orbital plane
View from above orbital plane
View from above satellite
View from above satellite

Ground track
Ground track

The orbit data is extracted from the following two-line orbital elements,

1 41765U 16057A   18288.08558927  .00004818  00000-0  63149-4 0  9991
2 41765  42.7854 347.3387 0007520   0.9768  77.5702 15.59722105118740
Epoch (UTC): 15 October 2018 02:03:14
Eccentricity: 0.0007520
inclination: 42.7854°
perigee height: 383 km
apogee height: 393 km
right ascension of ascending node: 347.3387°
argument of perigee: 0.9768°
revolutions per day: 15.59722105
mean anomaly at epoch: 77.5702°
orbit number at epoch: 11874

The dashed part of the orbit path shows where the satellite is in the earth's shadow,  

DLR